Theta_e
314 314 313 314 314 314 315 315 315 316 317 316 316 316 316 315 314 315 314 313 314 315 315 315 316 316 316 316 317 317 317 316 316 316 316 316 316 316 316 317 317 317 316 316 315 314 314 315 315 315 315 315 315 315 315 315 315 315 315 315 315 315 315 315 315 315 316 315 316 316 316 317 317 317 318 317 317 317 316 316 317 318 318 321 323 325
314 314 314 314 315 314 314 314 314 315 317 316 316 315 315 315 314 314 314 313 313 314 315 316 316 316 316 316 317 317 317 317 316 316 316 316 316 317 317 318 317 317 316 316 315 315 315 314 314 314 314 315 315 314 315 315 315 315 315 315 315 316 315 315 315 316 316 315 316 316 316 317 318 319 318 317 317 316 316 317 319 322 323 325 324 323
313 314 314 314 314 314 314 314 313 315 316 316 316 315 315 315 314 313 313 313 312 313 315 316 315 315 316 316 317 317 317 317 317 317 317 317 318 317 318 318 317 316 316 316 316 316 316 315 315 314 314 315 315 315 315 315 315 315 315 315 315 315 315 315 315 315 315 316 316 316 318 319 320 320 320 319 318 317 317 317 318 321 323 325 324 322
313 313 314 313 314 314 313 313 313 314 314 315 315 314 314 315 314 313 313 313 312 312 313 315 315 315 316 316 317 318 317 318 317 317 317 316 316 317 317 317 316 316 316 316 316 315 316 316 315 315 315 314 314 315 315 315 315 315 315 315 315 315 315 315 315 315 315 315 316 316 318 319 320 321 321 319 318 317 317 316 317 318 320 323 325 325
313 311 310 312 314 313 313 313 314 313 314 317 317 315 315 316 314 315 314 312 312 312 312 314 313 313 315 315 316 316 315 315 315 314 314 314 314 314 314 315 315 315 315 315 315 315 315 315 315 316 315 315 315 315 315 315 315 315 315 315 315 315 315 315 315 315 315 315 315 316 317 318 318 319 318 317 316 317 316 316 317 318 320 324 325 327
313 309 308 312 313 313 313 313 314 314 313 316 317 316 316 315 315 315 314 313 313 313 313 314 311 312 315 316 316 315 313 314 313 312 314 314 314 313 313 314 313 314 314 314 314 314 315 315 315 315 315 316 315 315 315 315 315 315 315 315 315 315 315 315 315 315 315 315 314 315 317 317 317 317 316 316 316 316 316 317 317 318 320 322 324 326
310 306 308 313 313 315 314 313 315 316 313 313 315 316 315 315 316 315 315 314 313 313 312 312 312 311 314 316 316 315 314 314 313 313 315 315 315 315 315 315 313 313 313 313 313 314 314 314 314 315 315 315 315 315 315 315 315 315 316 316 316 315 315 315 315 314 314 315 315 315 316 316 316 316 316 316 316 315 316 317 317 319 320 321 323 327
309 307 311 313 314 315 314 314 316 316 314 315 315 315 313 315 316 316 316 315 315 314 312 313 314 312 312 315 315 314 313 314 314 314 316 316 316 316 316 315 314 313 313 312 313 313 313 313 313 314 314 314 314 314 314 314 314 314 314 314 314 314 314 313 314 314 314 314 315 315 315 315 315 316 315 316 316 316 317 317 318 320 321 321 322 324
310 311 312 313 314 315 314 315 316 316 315 315 314 316 315 316 316 316 316 315 315 315 312 314 315 312 312 314 315 313 313 314 314 315 317 316 316 316 316 315 314 313 312 312 313 312 312 312 312 313 313 313 313 313 313 313 313 314 313 314 314 313 313 313 313 313 314 314 315 315 315 315 315 315 315 316 316 317 317 317 317 317 318 319 320 320
311 311 312 314 315 315 313 311 314 317 316 313 313 316 317 317 317 317 316 315 314 313 313 315 315 312 311 313 314 313 313 314 314 315 316 316 315 315 315 315 314 313 312 312 313 313 312 312 312 312 312 312 313 313 313 313 313 313 313 313 313 313 312 313 313 313 314 314 314 315 315 315 315 315 315 316 316 316 316 316 316 316 316 316 317 317
310 309 311 313 313 312 310 309 312 316 314 313 315 316 316 316 316 316 315 314 313 313 313 314 313 312 311 312 315 314 312 314 315 315 315 315 315 315 315 315 314 314 314 314 314 314 314 314 313 314 314 314 314 314 314 314 314 314 314 314 313 313 313 313 314 314 314 314 315 315 315 315 316 316 316 316 316 316 316 316 315 315 315 315 315 315
311 310 312 312 309 310 312 311 311 313 314 315 317 315 315 315 314 314 313 313 313 313 312 310 311 313 311 311 314 313 312 314 315 315 315 315 315 315 314 314 314 314 315 315 315 316 316 315 315 315 315 315 315 315 315 315 315 315 315 315 315 314 315 315 315 315 315 315 316 316 316 316 316 316 316 315 315 315 315 315 315 315 315 315 315 315
314 313 313 311 309 311 314 313 311 312 314 316 316 314 314 314 314 314 314 313 313 312 309 309 311 312 311 312 313 313 312 313 315 315 315 315 315 315 314 314 314 314 314 315 315 315 316 316 316 316 316 316 316 316 316 316 316 316 316 316 316 316 316 316 316 316 316 316 316 315 315 315 315 315 315 315 315 315 315 315 314 315 314 314 314 314
315 314 314 313 311 311 313 313 312 313 314 315 315 313 313 314 314 315 314 313 313 311 308 309 311 312 311 313 314 313 313 313 313 313 313 314 314 314 314 313 313 314 314 314 314 315 315 315 315 316 315 315 315 316 315 316 316 316 316 315 316 315 315 315 315 315 315 315 315 315 315 315 315 315 314 314 315 314 314 314 314 314 314 314 314 314
314 314 313 314 313 312 313 314 313 314 314 315 317 315 313 314 314 314 314 314 313 312 309 308 311 312 311 312 312 312 312 312 311 310 310 312 312 313 313 313 313 313 314 314 314 314 314 314 315 315 315 315 315 315 315 315 315 315 315 315 315 315 314 315 315 315 315 314 315 315 315 315 314 315 314 314 314 314 314 314 314 314 314 314 314 314
314 314 313 312 311 312 313 314 313 315 315 315 316 316 314 314 313 312 311 312 312 312 311 309 311 313 313 312 311 311 310 310 309 309 310 311 312 313 313 314 314 313 313 313 313 314 314 314 314 314 314 314 314 314 314 314 314 314 314 314 314 314 314 314 314 314 314 314 314 314 314 314 314 314 314 314 314 314 314 314 314 314 314 313 314 314
314 315 313 311 311 310 310 311 312 313 315 314 314 314 313 313 313 311 309 309 309 311 312 311 311 312 312 313 312 311 310 310 309 309 310 312 313 314 315 315 314 313 313 313 313 314 314 314 314 314 314 314 313 313 313 313 313 313 313 313 314 314 314 314 314 314 314 314 314 314 314 314 314 314 314 314 314 314 314 314 314 314 314 314 314 313
314 314 312 313 313 310 307 309 310 310 312 313 314 314 312 312 312 311 311 310 310 311 312 311 311 311 311 312 312 311 311 311 310 310 311 312 314 315 316 315 313 313 313 313 313 314 314 314 314 313 313 313 313 313 313 313 313 314 314 314 314 314 314 314 314 314 314 314 314 314 314 314 314 314 314 314 314 314 314 314 314 314 313 314 313 314
316 315 313 312 313 311 309 310 312 310 311 312 313 313 312 312 312 310 311 312 311 312 311 310 310 310 311 312 312 312 312 311 311 311 312 313 314 315 315 315 313 313 312 313 313 313 313 313 313 313 313 313 313 313 314 314 314 314 314 314 314 314 314 314 314 314 314 314 314 314 314 314 314 314 314 314 314 314 314 314 314 314 313 313 313 313
316 315 315 311 311 312 311 312 313 313 311 310 311 312 313 313 312 311 312 312 311 312 311 311 310 310 312 313 313 313 313 312 312 311 312 313 315 315 315 314 313 312 312 313 313 313 313 313 313 313 313 313 314 314 314 314 314 314 314 314 314 314 314 314 314 314 314 314 314 314 314 314 314 314 314 314 314 314 314 313 313 313 313 312 312 312
314 314 316 312 311 312 312 313 314 314 312 311 311 311 312 312 311 311 312 311 311 311 311 312 311 311 312 313 313 313 313 313 313 312 313 314 315 315 314 313 312 312 312 313 313 313 313 313 313 313 313 314 314 314 314 314 314 314 314 314 314 313 314 313 313 314 314 314 314 314 314 314 314 314 314 314 314 313 313 313 312 312 312 312 312 312
313 314 316 313 312 313 313 312 311 312 313 312 312 312 312 312 312 313 313 311 310 310 311 311 311 312 312 311 312 312 312 313 314 313 314 315 315 315 314 313 312 313 313 313 313 313 313 314 313 313 314 314 314 314 314 314 314 314 313 313 313 313 313 313 313 314 313 313 314 313 313 313 313 313 313 313 313 313 312 312 312 312 312 311 311 311
314 315 315 313 313 313 312 310 307 308 311 312 312 313 314 313 312 313 314 312 310 309 309 310 311 312 311 308 309 310 309 310 312 313 314 315 315 315 314 313 313 313 313 313 313 313 313 314 314 314 314 313 314 314 313 314 313 313 313 313 313 313 313 313 313 313 313 313 313 313 313 313 313 313 313 313 312 312 312 312 311 311 310 310 310 310
314 316 315 313 313 312 311 310 308 308 311 312 312 312 313 314 315 313 313 313 312 310 310 310 311 313 312 308 308 309 307 306 308 312 315 315 315 315 314 313 313 313 313 313 313 313 313 314 313 313 314 313 313 313 313 313 313 313 313 313 313 313 313 313 313 313 313 313 313 313 313 313 312 312 312 312 312 312 311 310 310 309 309 308 307 307
313 315 316 314 314 314 313 313 312 311 311 312 313 313 312 314 315 313 312 312 312 313 313 311 312 313 312 309 308 308 307 307 307 310 314 315 315 314 314 313 313 313 313 313 313 313 313 313 313 313 313 313 313 313 313 313 313 313 313 313 313 313 313 313 313 313 313 313 313 312 312 312 311 311 311 311 311 310 309 308 307 306 306 305 304 304
314 316 316 315 315 315 315 315 315 315 313 313 315 315 314 314 314 313 313 312 313 315 315 312 312 312 310 309 310 309 308 308 308 309 311 314 315 314 313 313 312 312 312 312 313 313 313 313 313 313 313 313 313 313 312 312 312 313 313 313 313 313 313 312 312 312 312 312 312 311 311 311 311 310 310 310 309 308 307 306 305 304 304 303 303 303
316 317 315 315 315 315 315 317 318 317 315 315 316 316 315 314 314 314 314 313 313 315 316 314 313 313 311 310 310 310 309 309 309 308 309 313 315 314 313 312 312 312 312 312 312 313 313 313 313 313 313 312 312 312 312 312 312 312 312 312 312 312 312 312 312 312 312 312 311 311 310 310 309 308 308 307 307 306 304 304 303 303 303 303 303 303
316 315 315 316 316 316 316 317 319 318 317 316 316 317 317 315 315 315 315 315 315 314 314 315 315 315 314 312 311 312 311 310 310 308 308 312 314 314 313 312 311 311 311 312 312 312 313 312 312 312 312 312 312 312 312 312 312 312 312 312 312 312 311 311 311 311 311 311 311 310 309 308 307 306 306 305 304 303 303 303 303 303 303 303 303 303
315 314 315 317 317 317 317 316 317 317 317 317 317 317 318 316 315 315 315 315 316 315 314 315 317 316 314 313 312 313 312 311 311 310 308 311 314 313 312 311 310 310 311 312 312 312 312 312 312 312 312 312 312 312 312 312 312 312 312 311 311 311 311 311 311 310 310 309 309 307 306 305 304 304 303 303 303 302 302 303 303 303 303 303 303 302
314 313 316 316 315 317 318 316 317 317 317 318 318 318 317 315 315 315 314 314 315 316 315 316 318 317 315 314 313 314 314 312 312 311 310 311 313 312 311 310 310 311 311 312 312 312 312 312 312 312 312 312 312 311 311 311 311 311 311 311 310 310 309 309 308 307 307 307 306 305 304 303 303 303 303 302 303 303 303 303 303 303 303 302 301 299
313 314 318 316 313 316 318 316 315 316 317 319 320 319 316 315 315 314 314 314 314 315 315 317 319 317 315 314 314 312 312 311 311 311 311 311 312 311 310 310 310 310 311 311 312 312 312 311 311 311 311 311 311 311 311 311 311 310 310 309 308 307 306 305 304 303 304 304 303 303 302 302 302 302 302 302 302 303 302 302 302 301 300 299 298 297
313 313 316 315 312 315 318 316 314 313 314 315 318 318 316 315 315 314 314 314 314 315 316 317 318 316 314 315 314 310 309 310 311 311 311 311 311 311 310 310 310 310 310 311 311 311 311 311 311 311 311 311 310 310 311 310 310 309 308 307 305 304 302 301 301 301 302 302 302 301 301 302 302 302 302 301 301 300 300 299 298 298 297 297 297 297
312 312 314 313 313 316 315 313 313 312 311 312 314 316 316 315 315 314 314 314 314 315 316 316 316 315 314 314 314 313 311 311 311 311 311 311 311 311 311 311 310 310 310 311 311 311 311 311 311 310 310 310 310 310 310 309 308 306 304 303 302 301 300 300 300 301 301 301 301 301 301 301 301 300 299 298 298 297 297 296 296 296 296 296 296 296
313 313 313 313 315 315 312 311 312 312 312 313 313 314 316 315 315 315 315 314 314 314 315 315 315 314 314 313 313 314 313 312 311 311 311 311 311 311 311 311 311 310 310 310 311 311 311 311 310 310 310 309 309 309 308 306 304 302 301 300 300 300 300 300 300 301 301 301 301 300 300 299 298 297 297 296 296 296 296 296 296 296 296 296 296 296
313 313 312 312 313 312 310 311 312 312 313 313 313 314 314 314 314 315 316 314 314 314 314 314 314 314 314 313 313 313 313 312 311 311 311 311 311 311 311 311 311 310 310 311 311 311 311 310 310 309 309 308 307 306 304 302 300 300 300 300 299 299 299 300 300 300 300 299 299 298 297 296 296 296 296 296 296 295 296 296 296 296 296 296 296 296
313 312 312 312 312 310 309 311 312 314 313 312 313 313 312 313 315 315 316 315 314 314 314 314 314 314 314 314 313 313 313 312 311 310 310 310 310 311 311 311 311 311 311 311 311 311 310 310 309 308 307 306 305 303 301 299 299 299 299 299 299 299 299 299 299 299 298 297 296 296 296 296 295 296 295 295 296 296 295 295 295 295 295 295 295 295
312 312 312 312 312 311 311 311 312 314 314 314 315 313 311 313 314 314 314 314 313 313 314 313 313 314 314 313 312 311 311 310 311 311 310 309 309 310 310 311 311 311 311 311 311 310 310 309 308 307 305 304 302 300 299 299 299 299 299 298 298 298 298 298 297 297 296 296 296 296 295 295 295 295 295 295 295 295 295 295 295 295 295 295 295 295
312 312 313 313 312 312 312 312 312 313 313 314 316 314 311 312 313 313 314 314 313 313 313 313 313 313 313 313 311 310 310 311 312 312 311 310 309 309 309 310 310 311 311 311 310 310 309 307 306 304 302 301 300 299 298 298 298 298 298 298 297 297 297 297 296 296 296 296 296 295 295 295 295 295 295 295 295 295 294 294 294 294 294 294 294 294
312 312 312 312 312 312 312 313 313 313 313 315 315 314 311 312 313 313 313 313 313 313 313 313 312 312 313 312 310 309 310 312 312 312 311 311 310 309 308 309 309 310 310 310 309 309 307 305 303 301 300 299 298 297 297 297 298 298 297 297 297 297 296 296 296 296 296 295 295 295 295 295 294 294 294 294 294 294 294 294 294 294 294 294 294 294
312 311 311 312 313 313 313 313 313 312 314 316 315 312 311 312 312 312 313 313 313 313 313 312 312 312 312 311 310 310 311 312 312 311 311 311 310 309 308 308 308 309 309 308 307 306 304 302 300 299 298 297 297 297 297 297 297 297 297 297 297 296 296 296 296 295 295 295 294 294 294 294 294 294 294 294 294 294 294 294 294 294 293 293 293 293
311 311 311 311 312 313 313 313 312 312 316 318 314 310 310 311 312 313 314 314 313 313 312 312 311 311 311 311 310 310 310 310 311 311 311 311 310 308 307 307 307 308 308 307 305 303 302 300 298 298 297 297 297 297 297 297 297 297 297 297 296 296 296 296 295 295 295 294 294 294 294 294 294 294 294 294 294 293 293 293 293 293 292 292 292 292
313 312 313 313 312 312 313 313 312 313 315 315 311 308 310 312 313 314 313 312 312 312 311 311 312 311 311 311 311 310 310 309 309 309 310 310 309 308 307 307 307 306 306 304 303 301 299 298 297 296 296 296 297 297 297 297 297 297 297 296 296 296 296 296 295 295 294 294 294 294 294 294 294 293 293 293 293 293 292 292 292 291 291 291 291 291
313 313 313 313 313 313 314 314 314 315 314 311 309 309 311 312 313 313 311 310 311 312 312 312 312 312 312 311 311 310 309 308 308 308 308 308 308 307 307 306 306 305 303 301 300 298 298 297 296 296 296 297 297 297 297 297 297 297 297 296 296 296 296 295 295 294 294 294 294 294 293 293 293 293 292 292 292 291 291 291 291 290 290 290 290 290
313 314 314 314 313 313 314 315 315 313 311 310 312 312 311 311 312 312 311 311 312 312 312 312 312 313 312 311 310 310 308 307 307 307 307 307 306 306 305 304 303 302 301 299 298 297 296 296 296 296 297 297 297 297 296 297 297 297 296 296 296 296 295 295 294 294 294 293 293 293 293 292 292 291 291 291 290 290 290 290 290 290 290 290 289 289
313 312 312 313 314 313 314 314 313 310 309 311 312 312 311 310 311 311 311 312 312 312 312 312 312 312 311 310 309 309 308 307 307 306 306 306 305 304 304 302 301 300 299 298 297 296 296 296 297 297 297 297 296 296 296 296 296 296 296 296 295 295 294 294 293 293 293 292 292 292 291 291 290 290 290 290 290 290 290 289 289 289 289 289 289 289
308 307 309 312 313 313 313 312 309 308 309 310 310 311 310 311 311 311 311 311 311 311 311 311 311 312 311 310 309 308 307 307 306 305 305 305 304 303 302 301 300 298 297 297 296 296 296 297 297 297 297 296 296 296 296 296 296 296 296 295 295 294 294 293 293 292 292 291 291 290 290 290 290 290 290 289 289 289 289 289 289 289 289 289 288 288
305 305 308 311 312 314 314 312 309 308 309 309 309 309 310 310 310 311 310 310 310 310 310 311 311 311 311 310 309 308 307 306 306 305 304 304 303 302 301 300 298 297 296 296 296 296 297 297 297 297 296 296 295 295 295 295 295 295 295 294 294 293 293 292 292 291 291 290 290 290 290 289 289 289 289 289 289 289 289 289 288 288 288 288 288 288
307 307 309 311 311 312 312 309 306 306 307 307 309 309 309 310 310 310 310 310 310 310 310 310 310 310 310 310 309 308 307 306 305 305 304 303 303 302 300 298 297 296 296 296 296 297 297 297 296 296 295 295 295 295 295 295 294 294 294 293 293 292 292 291 291 290 290 289 289 289 289 289 289 289 289 289 289 289 288 288 288 288 288 288 287 287
306 307 309 310 310 310 309 306 304 305 307 307 308 309 310 311 311 310 310 310 310 310 310 309 310 310 309 309 309 308 307 306 305 306 305 304 303 301 299 298 297 296 296 296 297 297 297 296 296 295 295 294 294 294 294 294 294 294 293 293 292 291 291 290 290 289 289 289 289 289 289 289 289 289 288 288 288 288 288 288 288 288 288 288 287 287
306 307 308 308 310 311 310 307 306 308 310 308 308 309 310 310 310 310 310 310 310 310 309 309 309 309 309 309 308 308 307 306 305 305 305 304 302 301 299 297 296 296 296 297 297 297 297 296 295 294 294 294 294 294 294 294 293 293 292 291 291 290 290 289 289 289 289 289 289 289 289 288 288 288 288 288 288 288 288 288 288 287 287 287 287 287
306 307 307 308 309 309 308 307 307 308 309 307 306 307 308 308 309 309 309 310 310 309 309 309 309 309 308 308 308 307 307 307 306 305 304 303 302 300 298 297 296 296 297 297 297 297 296 295 295 294 293 293 293 293 293 293 292 292 291 290 289 289 289 289 289 289 289 288 288 288 288 288 288 288 288 288 287 287 287 287 287 287 287 287 287 286
Wind_Speed
12 8 7 9 10 13 14 12 8 7 11 13 11 7 6 7 6 5 7 3 2 4 8 11 11 11 12 10 10 10 10 9 10 10 11 11 11 12 12 12 12 13 14 16 20 21 21 22 23 23 23 23 22 22 22 22 23 22 23 23 23 22 23 23 23 23 23 23 22 22 22 22 21 21 21 22 22 22 22 22 21 21 21 21 21 22
9 8 10 12 10 13 12 6 2 5 10 12 10 8 6 6 4 5 5 4 2 3 6 7 9 12 12 11 12 12 11 11 12 13 13 14 14 14 14 14 14 16 17 19 20 19 19 21 23 25 25 25 24 24 24 24 24 23 23 23 23 23 24 23 23 24 24 24 23 22 21 20 19 18 19 20 21 21 21 20 19 19 20 20 21 23
8 9 11 9 5 7 6 3 3 5 8 8 7 8 6 5 5 5 4 4 2 2 3 3 6 10 11 11 12 13 13 12 12 11 11 12 13 12 11 12 15 19 20 20 20 19 19 19 21 24 25 26 25 25 25 25 25 24 24 23 23 24 23 23 23 24 24 24 24 23 21 19 17 17 17 18 19 19 20 19 18 19 20 21 21 21
9 6 5 6 7 8 6 5 6 4 5 6 6 7 5 7 6 2 4 5 2 1 2 2 5 8 9 10 12 12 11 9 9 12 14 15 15 14 13 14 17 20 21 21 21 21 21 21 21 22 23 24 25 25 25 25 26 25 24 24 24 24 23 23 24 23 24 24 24 23 21 19 17 16 17 18 18 18 18 18 18 18 19 20 21 20
6 1 2 3 7 9 8 8 8 6 5 3 5 6 5 9 5 2 6 6 2 2 2 4 5 7 8 11 11 6 5 6 8 11 14 15 17 19 19 20 21 22 23 23 23 22 23 24 23 23 23 23 24 24 25 25 26 25 24 24 25 25 25 24 24 23 24 24 24 23 22 20 19 18 18 19 18 18 17 17 17 17 18 18 19 20
3 2 2 5 9 10 10 9 10 9 5 3 4 3 4 10 8 8 9 7 2 4 3 1 5 5 5 10 10 4 4 6 6 7 10 9 11 14 16 18 20 22 23 23 24 24 25 25 25 26 26 25 25 24 25 25 25 25 25 26 26 27 27 26 26 25 24 24 24 23 21 20 19 19 19 19 18 16 15 16 16 17 17 17 17 17
2 1 1 5 9 9 10 9 8 7 6 5 2 1 4 8 10 10 10 6 2 2 2 1 5 3 2 6 7 5 4 6 6 6 8 7 6 7 8 12 15 17 19 20 21 22 23 25 25 27 28 28 28 28 27 26 26 26 26 27 28 29 30 30 28 27 26 24 23 22 21 20 20 19 18 18 16 15 15 15 16 16 16 16 17 17
4 4 2 5 8 7 8 7 5 6 6 3 1 1 5 8 9 10 9 6 1 2 2 2 4 4 3 3 5 6 5 6 7 7 7 6 5 5 4 8 12 13 15 16 17 18 20 21 22 24 26 28 30 29 28 27 27 27 28 29 30 30 30 30 28 27 25 23 21 20 19 19 18 18 17 15 14 14 14 15 15 15 16 16 17 18
3 6 5 7 8 6 6 1 3 5 4 1 1 0 5 6 8 9 7 4 1 1 4 4 3 4 5 3 5 5 5 8 9 8 7 6 5 3 2 5 9 10 12 14 15 16 16 17 18 19 20 21 23 23 23 23 23 24 25 26 26 26 26 25 24 22 21 19 17 16 16 16 15 15 14 13 13 14 15 16 17 17 18 18 18 19
2 2 2 4 6 4 3 4 4 0 1 4 4 4 7 6 6 6 4 3 2 3 5 4 4 4 5 4 5 5 5 7 9 7 6 5 4 3 2 2 5 7 10 12 13 14 14 14 15 15 15 15 15 16 16 17 17 17 17 17 18 19 19 19 18 17 15 14 14 14 13 13 13 13 13 13 14 15 16 17 17 18 18 19 20 21
2 2 2 2 1 2 6 6 5 4 7 9 8 8 8 5 5 3 2 2 3 5 3 2 0 3 4 4 5 4 1 2 5 7 5 5 5 4 3 2 3 5 8 10 11 12 12 13 13 13 12 12 12 12 12 12 12 12 11 11 11 11 12 12 12 12 12 12 12 11 11 11 11 11 12 13 13 13 14 15 15 16 17 18 20 20
4 4 1 2 2 2 6 7 6 4 7 7 6 8 7 4 4 3 3 3 5 5 1 2 1 2 5 4 1 2 2 2 2 6 7 7 7 5 4 4 5 8 10 12 13 13 14 14 14 14 14 13 13 13 12 12 11 11 10 10 9 10 10 10 10 10 10 9 8 8 7 8 8 8 8 8 8 9 10 11 13 14 15 17 18 19
5 3 2 3 1 3 4 6 5 2 3 3 6 9 6 5 5 5 5 5 5 2 2 1 0 3 6 6 4 1 2 3 2 5 7 8 9 7 6 6 9 12 13 14 16 17 18 18 18 18 17 17 16 16 15 14 14 13 13 12 11 11 10 10 9 8 7 6 5 5 4 3 2 2 2 3 4 5 7 8 10 12 13 15 16 17
4 3 2 3 2 5 4 5 5 4 5 7 9 8 6 6 5 6 6 4 3 1 2 1 1 3 5 6 6 4 6 8 7 7 7 8 9 8 8 9 12 15 16 17 19 20 21 22 22 21 21 21 20 19 18 17 16 15 15 14 13 12 11 10 9 8 8 7 6 5 4 3 2 1 1 2 3 5 6 7 9 10 11 12 13 15
6 3 4 3 2 5 5 2 2 5 7 5 3 4 6 5 4 5 5 3 3 3 2 2 2 4 3 1 1 2 5 11 9 7 8 8 8 9 11 12 14 16 19 21 23 24 25 25 25 25 24 23 22 21 20 19 18 17 16 15 13 12 11 11 10 9 8 6 6 5 3 3 1 1 2 4 5 6 7 8 9 10 11 12 12 13
7 2 2 2 1 2 3 2 3 4 8 3 1 1 4 2 1 1 0 0 2 1 3 4 3 4 2 3 6 3 4 9 9 7 7 7 9 12 13 12 13 18 22 24 25 26 27 27 26 26 25 24 22 21 19 18 17 15 14 13 12 11 10 9 8 7 6 5 4 3 2 1 2 3 4 5 6 7 8 9 9 10 11 12 12 13
5 2 3 2 2 2 2 2 4 1 4 3 2 3 2 2 3 3 2 2 1 3 3 4 4 3 2 4 7 7 6 6 6 6 7 9 11 13 12 12 16 21 24 25 26 27 27 26 25 24 23 22 20 18 17 15 14 13 12 11 10 9 8 8 7 6 5 4 3 2 1 2 3 4 5 6 7 8 9 9 10 11 11 12 12 12
3 4 3 2 3 4 4 2 2 4 2 2 4 4 3 1 1 1 2 1 2 5 2 4 5 4 4 4 4 9 10 8 7 7 9 11 13 13 13 14 20 23 24 25 26 26 26 24 23 21 20 19 17 16 14 13 12 11 10 10 9 8 7 6 5 4 3 2 1 1 2 3 4 5 6 7 7 8 8 9 9 10 10 11 11 11
2 3 3 2 1 3 2 1 2 1 3 1 1 1 2 2 3 3 3 2 4 5 3 4 6 5 5 4 4 9 13 11 10 9 10 13 14 15 14 15 19 22 23 25 25 25 24 23 21 20 18 17 15 14 13 12 11 10 9 8 7 6 5 4 3 2 1 1 2 3 4 5 5 6 6 7 7 7 7 7 7 8 8 8 9 10
1 1 2 1 1 2 1 2 5 5 2 1 0 1 0 1 3 3 4 3 3 5 5 3 4 4 6 6 6 10 14 14 13 10 11 15 18 18 16 17 20 22 23 24 25 24 23 21 20 18 17 16 15 14 13 11 10 9 8 7 5 4 3 2 1 1 1 2 3 4 5 5 5 6 6 6 6 6 5 5 5 5 6 7 8 10
1 1 3 3 0 2 3 3 4 5 5 3 4 5 4 2 0 1 3 2 2 4 5 4 4 3 2 5 6 8 12 14 13 11 11 17 20 18 17 20 23 24 24 26 25 24 23 21 19 18 17 16 15 14 12 11 10 8 7 6 4 3 2 1 1 2 2 3 3 4 4 4 4 4 4 4 3 3 3 3 4 5 7 8 9 10
1 0 4 5 3 4 2 1 1 0 1 3 4 6 7 5 3 3 4 2 0 3 3 2 4 2 2 0 1 3 4 6 11 13 13 18 21 18 19 24 26 26 26 27 26 24 23 22 20 18 17 16 14 13 11 10 8 7 6 5 4 2 2 1 2 2 2 3 3 3 3 3 3 3 2 2 1 1 1 3 4 6 7 9 10 11
2 3 5 4 2 2 1 2 1 0 0 2 2 3 4 5 5 6 5 3 3 2 1 1 3 2 2 2 2 4 4 3 7 13 15 19 21 20 22 26 27 27 28 27 26 25 23 22 20 18 17 15 13 12 10 9 8 7 6 5 4 3 3 2 2 2 2 2 2 3 3 3 2 2 1 1 1 1 3 4 6 7 9 10 11 12
2 3 4 3 2 1 1 2 2 1 1 3 4 3 4 4 4 3 1 1 3 4 3 2 5 3 1 2 2 3 4 3 4 11 16 19 20 22 26 28 28 29 29 27 26 25 23 22 19 18 16 14 13 12 10 10 9 8 8 7 6 5 4 4 3 3 3 3 2 2 2 3 2 2 2 1 2 3 5 6 8 9 10 10 11 12
4 3 4 5 3 2 2 2 2 2 2 4 4 4 5 3 2 3 0 1 2 6 7 5 6 4 1 1 1 3 3 3 6 10 14 18 21 24 27 29 29 30 29 27 26 24 22 21 19 17 16 14 14 13 12 11 10 10 9 8 7 6 6 6 5 5 5 4 4 4 4 3 2 2 2 3 4 5 7 8 8 9 10 11 12 13
6 3 5 6 6 5 5 6 6 5 4 3 2 3 6 7 5 4 2 2 4 6 7 6 7 3 2 3 3 4 4 5 8 12 13 16 22 25 27 29 30 29 28 26 25 23 21 20 18 17 16 15 14 13 13 12 11 11 10 9 9 9 8 8 7 7 6 5 4 3 2 2 2 3 4 5 6 7 7 8 9 9 11 12 13 15
3 1 6 8 7 8 9 8 7 7 6 8 9 10 11 11 11 6 2 4 7 5 5 8 9 6 3 5 6 5 6 7 8 11 12 13 19 23 26 29 29 28 27 26 24 23 21 20 18 17 16 15 15 14 13 12 12 12 11 11 10 10 9 8 7 6 5 4 3 2 2 2 3 4 5 6 6 7 8 8 10 11 12 14 16 18
2 2 7 9 9 7 4 3 8 10 9 12 14 13 12 12 11 8 7 10 9 5 7 10 11 11 8 7 8 7 8 8 8 13 16 16 19 23 26 29 28 27 26 25 24 23 22 20 19 18 17 16 15 14 14 13 12 12 11 10 10 9 8 7 6 5 5 4 3 2 2 3 4 4 5 6 6 7 8 10 11 13 15 17 19 21
1 5 7 8 9 5 2 4 5 9 9 10 11 11 11 12 12 12 12 14 10 7 11 10 10 14 12 8 8 7 9 9 9 14 17 18 21 25 27 29 28 27 27 26 25 24 22 21 20 19 18 17 16 15 14 13 13 12 11 11 10 9 8 7 7 6 6 4 3 2 2 3 4 5 6 7 8 9 11 12 14 16 18 20 22 23
1 5 6 7 9 6 4 4 1 6 7 8 9 10 11 12 14 13 13 15 14 13 15 10 6 10 11 9 7 5 8 8 8 11 15 19 24 28 29 29 29 28 28 28 27 26 24 22 21 20 19 18 17 16 16 15 14 13 12 12 11 10 9 8 7 7 5 4 3 2 3 4 5 6 7 9 11 12 14 16 18 19 21 22 23 23
2 3 5 5 6 6 5 4 1 2 4 6 7 7 10 11 12 13 13 15 15 15 17 10 4 7 9 8 4 6 9 9 9 11 14 19 25 29 29 30 30 30 30 30 29 27 25 23 22 21 20 19 18 17 16 16 14 14 13 12 11 10 9 8 7 6 5 3 2 2 4 5 7 8 10 12 13 15 17 19 20 21 22 23 23 23
2 1 2 4 5 6 3 4 4 3 3 3 3 7 12 12 11 13 14 15 14 14 15 11 8 9 7 7 5 6 7 9 9 12 15 18 26 32 33 32 32 32 33 32 30 29 26 24 23 21 20 20 19 18 17 15 15 14 14 13 11 10 9 8 6 5 3 2 2 3 5 7 9 11 13 15 16 18 19 21 21 22 23 23 23 24
5 4 2 4 7 5 0 3 6 5 2 4 6 11 14 14 14 14 12 14 15 14 12 11 11 9 5 9 7 4 5 8 11 15 18 22 29 35 36 34 34 35 34 33 32 30 27 25 23 22 21 20 19 18 17 16 16 16 14 13 11 10 8 6 5 3 1 2 4 6 9 11 13 15 16 18 19 20 21 22 23 24 25 25 26 27
7 6 4 5 5 2 0 3 5 4 7 9 10 13 16 17 17 14 12 14 16 14 11 11 12 8 6 11 11 9 10 15 18 21 23 26 31 36 36 35 34 35 34 33 32 30 27 25 24 23 22 21 20 19 17 17 17 15 14 12 10 8 6 4 3 2 3 5 8 10 12 14 16 17 18 19 20 21 22 23 25 26 27 28 29 30
9 6 5 5 4 2 3 5 5 8 11 8 5 8 12 15 15 13 13 16 16 16 15 15 15 12 9 12 14 15 18 23 24 24 24 25 30 36 38 37 36 35 35 34 32 30 28 26 25 24 23 22 20 19 18 17 16 14 12 10 8 5 3 3 3 5 7 9 11 13 14 15 16 17 19 20 21 22 24 25 26 28 29 30 31 32
9 8 5 4 4 3 4 7 7 5 4 3 1 2 5 9 10 11 13 15 15 15 15 15 16 16 13 13 13 12 14 17 19 23 26 25 26 31 36 38 39 38 36 34 32 30 28 26 25 24 24 22 20 19 18 17 15 12 10 8 5 3 2 4 5 7 9 10 12 14 15 16 18 19 21 22 24 25 26 27 28 29 30 31 32 33
6 8 6 5 4 3 5 7 5 4 2 4 5 4 7 8 9 10 11 12 12 14 15 14 14 15 12 11 11 10 9 8 9 17 27 26 24 27 31 36 39 38 35 32 30 29 27 27 26 25 23 21 20 18 17 14 12 10 8 5 4 3 3 5 7 9 10 12 14 15 17 18 20 21 23 24 25 26 27 28 29 30 31 33 34 34
3 4 5 6 5 3 5 6 5 5 8 8 4 7 10 10 10 9 7 9 10 16 19 14 12 14 12 9 11 11 8 4 4 13 26 28 24 25 28 32 34 33 32 32 30 29 28 27 26 25 22 21 19 17 15 12 10 8 6 4 3 3 5 7 9 10 12 14 16 17 19 20 22 23 24 25 26 27 28 29 30 31 32 33 35 36
0 1 2 4 4 5 6 6 6 7 8 4 4 7 11 14 12 10 5 10 10 15 22 18 14 16 14 12 15 13 7 4 5 14 26 28 26 27 29 30 32 32 32 32 31 30 29 27 26 24 22 20 18 16 14 11 8 7 4 3 3 4 7 8 10 12 14 16 17 19 20 22 23 24 25 26 27 27 28 29 30 32 33 34 36 38
3 2 3 6 7 7 7 6 6 6 4 4 6 6 11 17 17 11 5 9 5 13 23 23 18 18 20 19 18 13 8 10 9 12 20 24 25 27 29 31 33 34 33 32 30 29 28 27 25 24 21 20 17 14 12 9 6 4 3 3 4 6 8 10 12 14 15 16 18 19 20 22 23 24 25 26 27 28 29 30 32 33 34 36 37 39
4 4 6 8 8 8 8 7 6 5 4 5 6 11 19 19 13 8 6 3 6 15 22 22 20 23 25 22 18 14 17 21 16 12 14 19 23 26 26 28 31 32 32 31 30 29 28 27 25 23 21 18 16 12 10 7 5 3 3 4 6 8 9 11 13 14 16 17 18 19 20 21 22 23 24 25 27 28 29 30 32 34 35 37 38 39
4 4 5 6 7 7 7 6 6 6 5 9 9 13 19 13 5 6 5 6 9 12 14 17 20 22 23 21 22 24 24 22 17 12 12 16 21 24 25 27 30 31 31 31 30 29 28 26 24 22 19 17 14 11 8 6 4 3 4 5 7 9 11 13 14 15 16 17 18 19 19 20 21 22 23 25 26 28 30 31 32 34 35 36 38 39
6 6 5 5 5 4 3 6 7 7 5 19 17 8 7 5 1 5 7 7 8 8 9 13 15 15 17 20 23 24 20 16 15 14 15 18 22 24 26 29 31 32 32 31 30 29 27 25 23 20 17 14 12 9 7 5 4 4 5 7 9 11 12 14 15 16 16 17 17 18 19 19 20 22 24 25 27 28 30 31 32 34 35 36 38 39
6 7 5 5 6 6 5 8 5 2 10 26 20 6 9 8 2 6 6 4 4 5 7 10 12 14 17 18 18 20 19 17 16 17 18 22 24 26 29 31 32 33 32 31 30 28 25 23 21 18 15 12 10 7 5 4 4 5 7 9 10 12 13 14 15 15 15 16 16 17 18 20 21 23 24 26 27 28 30 31 33 34 35 37 38 40
6 5 3 3 6 6 5 5 3 4 15 22 12 5 14 18 9 3 2 1 2 4 6 7 9 11 13 14 15 18 19 18 19 20 22 24 26 29 31 32 33 32 31 30 28 26 23 20 18 16 13 10 8 6 5 4 5 6 8 10 11 12 13 14 14 15 15 16 17 18 19 20 21 23 24 25 27 29 30 31 33 35 36 38 40 42
1 2 1 1 3 4 6 6 3 5 10 13 6 4 11 18 19 16 12 8 6 6 6 7 8 9 10 12 15 18 19 20 21 23 24 26 29 31 32 33 32 31 29 28 26 24 21 19 16 14 11 9 7 6 5 5 6 8 9 10 11 13 13 14 14 15 16 17 18 19 20 21 22 23 25 26 27 29 31 33 35 37 39 41 43 45
1 3 3 2 4 5 6 6 4 5 9 12 11 9 8 11 17 21 21 19 16 14 11 10 11 11 12 13 15 18 20 22 23 25 27 29 30 32 33 32 32 31 29 27 25 22 20 18 15 13 10 8 7 6 6 7 8 8 10 11 12 13 13 14 15 16 16 17 19 20 21 23 24 25 26 28 29 31 33 35 37 39 41 43 45 47
3 6 5 5 6 5 3 1 3 4 8 11 13 14 13 11 12 15 18 21 21 20 17 14 13 12 13 14 16 18 20 22 24 26 28 30 31 32 33 33 32 31 29 26 23 21 18 16 14 11 9 7 7 7 8 8 8 9 10 12 12 13 14 15 15 16 17 18 19 21 23 24 26 27 29 31 32 34 36 38 39 41 43 44 46 48
6 7 5 4 5 6 3 3 5 2 3 7 13 16 17 16 15 14 15 17 18 18 17 14 12 11 11 13 16 17 19 23 25 26 28 32 33 34 35 34 32 31 28 25 23 20 17 15 12 10 9 8 8 8 9 9 10 11 12 12 13 13 14 15 16 17 18 20 21 22 24 25 27 29 31 33 35 37 38 40 41 43 45 46 46 48
5 5 4 4 5 6 3 6 8 4 1 3 10 14 17 19 20 18 17 16 16 17 16 14 12 11 12 13 15 16 19 22 25 27 29 32 34 35 35 34 33 30 27 25 22 19 16 14 12 10 9 9 9 10 10 10 11 12 12 12 12 13 13 14 15 17 18 20 22 23 25 27 29 31 33 35 37 39 41 42 43 45 47 48 49 50
5 4 4 3 4 2 2 6 10 8 1 3 1 5 9 12 16 19 19 19 18 17 16 15 14 13 13 13 14 16 18 21 24 28 30 31 34 35 35 33 32 29 26 24 21 18 17 14 13 11 11 11 11 12 11 11 12 12 12 12 12 12 13 14 16 18 19 21 22 24 26 29 31 33 35 37 39 41 43 46 47 48 49 50 51 51
Wind_Direction
182 182 199 205 198 200 201 199 209 205 182 175 182 198 189 181 179 121 98 99 196 212 216 225 240 249 251 248 242 228 208 216 233 235 236 236 237 236 234 234 233 236 237 236 239 239 238 236 234 234 235 237 237 235 234 234 233 233 235 237 239 242 244 245 247 251 253 254 254 254 255 257 258 258 259 261 263 265 267 266 261 261 265 265 264 264
186 204 204 206 202 197 196 181 173 196 181 178 185 190 190 187 158 94 90 106 132 245 220 213 245 253 254 256 251 244 232 229 237 238 236 235 234 234 236 237 239 244 243 242 244 243 239 237 236 237 238 239 238 236 234 234 234 233 235 236 237 240 242 244 246 250 252 254 255 257 259 260 259 259 260 262 264 266 268 269 267 264 265 263 259 257
195 216 200 187 166 160 151 131 166 180 175 179 183 190 196 165 127 94 96 111 126 247 212 183 252 257 255 256 251 243 235 235 236 230 229 230 229 229 231 233 240 244 245 244 245 244 242 237 235 236 236 237 237 236 234 233 233 233 233 234 236 238 241 243 245 248 251 254 255 256 257 256 255 257 260 262 265 267 267 268 267 262 258 257 258 258
192 207 187 142 133 146 140 164 186 173 176 188 183 194 191 151 157 189 146 131 132 251 318 338 282 268 260 255 251 239 228 224 219 220 228 233 232 231 229 232 239 241 244 244 242 243 243 240 237 235 235 236 236 235 233 232 232 232 232 233 235 238 240 242 244 246 250 252 254 253 252 251 252 255 258 261 266 268 270 274 274 269 263 259 258 262
177 71 338 140 158 172 167 176 191 187 182 196 200 206 184 157 151 70 127 136 128 194 275 312 284 267 247 240 242 216 191 213 216 227 238 240 241 242 242 243 245 246 247 247 244 243 243 241 239 237 236 236 235 236 235 234 234 233 234 234 235 238 239 242 245 246 248 250 251 251 251 251 251 253 257 262 267 271 276 280 276 272 268 263 260 259
163 29 276 168 168 182 179 181 196 200 186 178 214 229 178 163 135 100 128 143 171 206 197 245 261 262 222 224 227 177 160 203 194 214 228 226 235 242 244 246 248 248 248 248 247 245 243 241 240 239 238 238 236 236 236 236 236 236 235 236 237 239 241 243 245 247 248 248 250 249 250 251 252 255 260 265 270 274 277 275 271 267 263 260 261 258
107 73 235 161 164 177 189 194 192 207 203 176 190 39 127 152 134 129 151 165 206 207 123 198 244 254 194 206 204 173 186 195 177 199 210 198 211 224 231 237 242 246 246 247 247 245 243 241 239 239 238 238 238 237 236 236 236 237 237 238 240 242 245 246 246 247 247 246 247 248 248 250 254 259 262 264 268 270 269 267 267 266 264 260 257 255
109 146 155 153 160 165 192 198 174 209 224 165 34 18 140 149 147 149 166 188 197 96 112 211 242 268 259 204 153 154 192 203 198 202 193 188 201 201 214 236 239 240 239 238 238 237 236 234 233 234 235 236 237 237 236 235 235 237 238 240 242 243 245 246 245 244 244 244 245 246 247 250 254 258 258 259 261 264 263 263 262 262 263 263 259 256
101 157 160 158 169 174 191 195 119 197 226 78 339 306 132 143 154 160 175 184 107 147 197 186 186 246 253 205 138 157 208 216 209 201 188 180 184 179 193 238 240 234 227 222 222 224 223 221 222 225 228 230 231 231 230 230 232 234 237 239 239 239 239 240 240 241 242 243 244 246 247 248 250 250 249 250 252 257 260 261 262 263 264 265 266 266
40 158 158 161 183 173 124 36 30 231 130 153 174 103 95 109 130 151 185 161 144 237 221 166 175 247 256 217 178 177 218 222 205 187 176 166 156 157 161 210 227 219 213 208 208 209 206 206 207 208 212 213 214 215 214 217 220 223 226 227 227 227 229 232 233 235 237 237 238 238 238 238 239 240 242 247 252 257 262 266 268 269 270 270 270 271
60 89 25 38 166 135 101 67 24 38 114 147 157 117 104 109 115 129 167 155 191 225 213 110 124 283 271 230 194 179 229 225 181 165 159 154 148 144 131 136 163 175 183 184 184 184 180 181 183 183 186 184 184 186 187 191 194 197 199 198 201 204 208 214 217 219 220 221 223 224 226 229 234 242 247 254 261 266 270 273 276 277 276 276 276 277
105 118 91 64 71 139 118 83 38 60 132 148 154 136 122 119 138 161 156 192 226 219 152 50 359 261 242 230 161 85 50 46 151 166 164 156 147 137 127 133 148 154 157 155 154 154 153 154 156 156 157 155 154 154 156 159 160 160 160 160 162 165 172 181 186 193 198 201 206 211 221 229 238 250 259 270 278 280 281 282 284 284 283 283 283 284
121 112 85 83 106 223 154 107 76 75 165 179 162 154 157 154 167 196 180 198 226 194 100 78 331 246 244 244 250 239 145 130 103 130 145 147 141 130 123 141 153 149 143 143 142 140 141 142 142 142 141 141 141 141 142 143 141 142 142 143 146 149 154 160 163 166 168 170 175 179 189 202 219 250 273 290 291 290 291 292 292 291 291 293 292 292
136 112 137 131 171 228 216 150 145 174 190 187 173 174 188 171 175 200 188 199 222 137 96 182 222 246 254 258 261 249 162 139 107 94 106 123 129 126 133 147 151 147 142 141 141 139 139 139 138 138 137 135 135 134 134 133 132 133 133 132 134 135 134 134 132 131 130 129 128 128 126 120 112 79 2 318 307 305 303 303 304 303 304 304 303 303
173 163 171 157 143 193 214 218 161 169 179 188 184 194 203 191 195 203 195 200 183 111 118 186 214 226 228 127 71 5 105 124 119 110 111 122 133 137 142 144 144 145 143 142 141 139 138 137 135 134 132 131 129 127 126 125 124 124 122 122 121 121 121 120 119 119 119 119 117 117 111 102 74 15 344 324 317 314 313 313 314 315 314 316 317 317
181 155 94 62 29 183 190 311 330 180 177 186 359 233 221 216 151 136 158 124 114 99 157 184 233 251 261 142 132 95 96 124 130 131 129 136 144 143 140 138 141 144 144 142 141 139 137 136 135 133 131 129 126 125 124 122 121 120 120 120 119 120 121 121 122 121 122 121 119 112 98 67 8 343 329 322 319 317 317 319 321 323 322 324 327 326
176 117 39 44 63 46 25 349 340 305 180 174 176 192 200 29 71 122 140 74 48 261 189 167 235 255 253 211 157 140 148 147 144 153 155 153 152 150 147 145 147 147 146 144 142 140 139 138 137 135 132 130 128 126 125 124 123 123 123 124 124 125 124 125 126 125 125 123 117 102 40 349 333 328 321 318 318 317 320 322 323 325 325 326 329 330
173 114 45 11 100 60 2 356 35 15 10 157 176 169 141 56 26 182 210 133 197 243 201 162 225 228 209 217 149 149 171 175 169 169 163 160 160 159 156 154 153 152 150 148 146 145 144 143 141 139 136 133 131 131 130 129 129 127 127 128 127 127 128 128 127 124 124 118 87 343 327 320 316 316 314 314 315 316 319 321 322 323 324 326 330 333
152 116 73 4 70 88 4 293 149 51 9 8 236 170 132 198 213 195 207 201 201 230 236 191 212 233 222 205 151 168 182 182 179 173 163 164 168 166 160 157 158 157 154 153 152 151 151 150 149 146 144 142 140 140 138 138 137 135 134 133 131 130 130 130 130 128 134 307 308 309 311 310 312 313 314 315 317 318 319 322 325 326 330 336 341 345
107 146 126 64 20 114 160 222 193 177 135 43 275 182 44 264 225 198 207 227 224 225 235 206 191 227 226 208 186 182 187 185 178 172 167 170 174 170 163 163 164 161 158 158 160 161 160 159 157 155 154 153 151 150 149 148 146 144 144 144 144 146 151 160 185 245 283 295 298 304 307 308 311 312 315 317 317 322 327 334 342 345 350 355 356 355
115 296 130 113 80 177 182 210 208 183 164 170 180 177 184 188 111 255 223 226 253 231 232 230 225 224 189 204 205 187 190 187 174 166 169 171 173 169 165 167 166 164 164 165 166 167 166 165 164 164 163 161 160 159 157 156 155 155 156 158 159 165 185 213 257 279 289 295 298 303 306 309 311 310 313 318 320 332 349 1 1 358 355 352 349 345
125 76 126 134 176 185 166 30 338 326 160 188 193 190 192 177 151 200 211 175 248 253 249 246 253 257 92 167 240 147 161 178 165 163 165 168 170 167 167 171 170 169 170 170 170 171 170 169 169 168 168 167 166 166 165 164 164 166 168 168 171 182 205 238 267 280 291 301 306 314 317 315 314 310 307 310 311 338 354 349 344 340 339 337 336 335
71 88 115 126 166 173 77 53 76 227 260 260 251 219 204 191 188 208 216 184 169 209 348 336 272 267 91 36 16 78 61 53 149 160 163 167 167 163 168 173 174 174 174 174 175 174 172 172 171 171 171 171 171 172 172 173 173 177 180 180 183 190 197 209 232 251 273 294 300 307 307 297 289 271 239 230 241 290 313 324 328 332 335 337 338 338
117 109 114 107 81 57 121 123 119 134 231 244 239 224 215 207 198 209 244 188 167 173 175 218 246 246 104 55 27 79 83 73 159 167 163 163 163 163 171 176 177 178 178 178 177 175 173 174 174 173 174 175 178 180 180 182 183 183 184 183 183 183 186 195 209 220 231 248 250 248 241 228 222 220 222 244 285 315 326 333 338 341 344 346 346 346
176 151 123 127 137 161 186 185 188 191 210 230 222 198 208 209 98 86 227 263 218 194 190 218 244 243 127 121 116 110 125 142 181 183 169 161 162 166 174 179 181 182 181 180 178 175 176 177 177 178 179 181 183 184 184 184 183 182 181 180 180 182 187 191 192 193 193 195 196 194 194 202 219 251 288 313 326 333 338 342 346 349 349 349 349 347
172 171 151 161 170 174 192 206 204 189 179 208 206 167 194 198 172 172 213 234 224 197 185 216 244 242 106 159 166 144 158 171 181 188 182 170 168 171 177 181 183 184 182 180 179 179 180 181 182 183 183 185 185 184 184 182 179 179 178 177 179 181 181 180 177 176 176 177 182 187 201 240 284 306 321 331 334 337 341 344 345 346 345 344 343 341
141 214 180 192 196 191 205 205 179 151 150 189 202 196 199 201 195 195 214 218 220 212 195 218 235 240 200 185 187 174 179 183 179 183 187 177 170 173 179 183 184 184 184 182 182 183 184 185 186 186 186 186 185 183 182 179 177 177 176 176 177 176 175 175 173 176 180 183 197 230 269 297 317 326 333 335 335 337 339 339 338 338 338 337 337 335
106 199 193 211 219 215 221 183 157 155 171 198 203 199 198 195 190 193 216 225 221 219 231 228 226 236 231 194 189 190 186 189 182 183 189 184 175 177 182 183 184 185 185 184 186 187 188 189 189 189 188 186 184 182 180 179 178 178 177 177 176 176 177 178 182 190 196 202 219 257 285 307 322 327 330 330 330 331 330 330 331 330 331 331 331 331
167 196 191 206 220 223 61 79 162 179 191 207 204 195 188 183 185 193 215 229 220 215 241 236 212 224 235 216 202 191 181 189 187 184 188 185 180 182 183 183 185 187 187 188 190 191 192 193 192 191 189 187 185 184 183 183 183 182 182 183 182 182 184 186 193 200 199 200 214 249 281 302 315 319 320 319 319 319 319 321 322 323 324 324 325 326
216 193 177 188 218 221 123 84 187 201 204 213 207 196 181 178 190 199 213 227 222 223 239 240 211 226 236 228 217 176 155 167 164 167 179 184 188 189 186 185 187 190 192 192 193 194 194 195 194 192 190 189 188 188 187 186 187 186 187 188 186 186 189 191 194 195 192 193 211 251 285 303 310 312 314 313 313 313 314 314 315 316 318 319 320 321
240 198 155 157 217 223 148 104 157 209 224 225 205 186 173 175 195 209 220 227 225 230 240 244 256 256 237 215 189 125 131 148 153 167 180 188 193 192 189 189 191 193 195 196 195 196 196 196 195 193 191 191 190 189 189 188 189 189 189 188 187 188 189 188 189 192 189 190 218 268 291 304 308 310 311 312 312 312 312 312 312 313 315 316 318 320
198 223 94 131 207 219 162 142 155 102 6 285 219 186 181 183 196 207 217 222 217 225 236 237 249 255 226 178 144 120 143 164 173 180 184 192 199 198 195 195 197 198 199 198 198 199 198 196 195 193 193 193 192 191 192 192 192 191 189 186 184 184 184 185 191 195 190 199 261 292 304 309 313 315 315 316 316 315 315 315 315 316 318 319 321 322
171 173 141 164 203 224 167 124 132 102 30 263 227 201 193 197 206 208 215 220 216 218 224 225 238 245 191 160 170 163 162 183 193 194 195 198 201 202 201 200 202 203 202 201 201 200 198 196 195 195 195 194 194 195 194 193 192 189 185 181 180 181 183 191 202 209 227 295 308 314 319 320 321 322 321 321 321 320 320 321 321 321 322 323 323 323
175 180 172 176 197 223 107 109 121 160 228 237 224 207 202 206 208 207 214 217 214 216 224 232 242 236 170 171 193 197 196 211 218 217 217 212 205 204 204 205 207 207 205 205 203 200 199 197 196 196 196 195 196 196 193 191 188 183 179 177 179 182 190 208 234 285 319 325 326 326 326 326 325 325 324 324 323 323 323 323 323 322 321 321 321 321
174 180 177 182 189 162 138 140 165 215 232 235 220 202 208 214 210 208 222 222 215 215 223 234 242 233 200 194 205 210 215 222 225 227 227 222 214 210 207 207 210 209 207 206 203 200 199 198 196 196 195 195 195 193 190 187 183 178 175 177 183 190 210 254 296 325 330 329 328 327 327 326 325 325 324 324 324 324 323 322 321 320 319 319 320 320
173 174 172 173 163 139 154 178 199 233 235 193 154 157 200 212 205 208 230 232 219 213 217 225 234 233 223 213 208 207 214 221 228 233 234 230 223 218 214 214 214 212 209 207 204 201 199 198 197 196 194 193 192 189 187 185 182 179 177 180 190 209 256 301 322 330 330 329 328 327 326 326 325 325 324 324 323 323 322 321 320 320 319 319 319 319
183 177 173 176 171 164 183 197 219 307 299 208 207 189 180 183 181 197 231 240 219 210 214 221 230 233 226 212 196 188 200 220 239 243 238 234 230 226 224 222 218 213 209 207 204 202 200 197 196 194 192 190 188 186 187 185 181 179 180 186 208 246 291 314 326 329 329 330 328 327 328 327 327 326 325 324 322 321 321 321 321 320 320 319 319 319
211 193 182 190 193 184 196 206 217 248 245 231 194 162 173 183 176 176 215 247 228 208 206 211 225 230 223 194 173 173 191 223 258 244 238 236 233 229 223 219 216 212 209 207 204 201 198 194 191 190 187 185 184 185 186 184 180 179 183 203 236 285 314 323 330 331 331 332 330 330 330 328 328 327 325 323 322 321 322 321 321 321 320 320 319 319
215 309 193 202 198 185 203 214 205 220 242 226 141 144 167 173 158 139 187 254 245 207 203 210 221 227 226 204 178 169 174 207 237 239 236 234 231 225 217 212 210 209 207 206 204 199 194 189 186 185 182 181 182 183 185 184 183 185 195 234 278 318 328 331 335 335 334 334 332 330 330 328 327 325 322 321 321 321 321 321 320 320 320 319 319 318
165 183 196 210 207 194 204 218 219 235 242 158 143 147 151 150 140 131 201 258 230 182 198 211 216 220 225 213 187 172 192 219 232 240 232 228 223 217 212 209 208 206 203 200 196 193 188 184 182 181 179 180 182 183 185 185 186 195 223 280 316 332 333 334 337 335 333 332 330 328 327 324 322 320 319 318 318 319 319 319 319 319 318 318 318 317
168 188 198 209 214 206 205 217 243 256 209 158 151 150 145 141 144 171 216 239 146 168 193 205 207 215 222 212 189 192 218 225 233 239 225 219 217 211 206 206 205 202 200 195 190 186 183 180 179 179 179 181 182 182 184 186 193 219 268 310 327 332 333 334 334 331 329 327 324 322 320 317 315 315 314 315 315 315 317 318 318 318 317 317 316 316
167 181 195 207 212 212 215 221 247 257 194 144 129 147 151 150 184 206 172 124 141 168 189 198 205 218 226 217 207 213 220 222 228 229 212 208 212 207 200 199 197 193 191 188 183 181 180 177 176 177 178 180 181 183 187 194 212 250 296 319 326 329 331 330 328 324 322 319 316 313 311 310 311 311 312 313 314 315 316 317 317 317 317 318 317 317
170 168 183 202 195 196 218 205 228 271 162 133 124 136 175 186 191 151 137 135 152 166 185 196 205 220 228 225 218 215 213 213 215 213 201 198 200 198 193 191 189 186 183 180 178 177 178 177 175 176 178 180 181 186 193 210 241 278 307 318 322 325 325 322 319 316 313 310 308 307 307 308 310 312 313 314 315 316 317 317 318 318 319 319 318 317
177 174 186 206 189 183 205 198 205 296 150 148 145 164 205 199 125 97 122 146 172 195 214 217 221 228 229 225 218 211 209 208 206 201 193 190 188 187 185 183 183 182 179 177 176 174 175 176 176 177 180 181 184 193 207 234 267 293 309 315 318 318 317 313 310 307 304 303 304 305 308 311 313 314 316 317 317 318 319 319 320 319 319 319 318 317
198 186 176 201 193 195 226 217 168 135 166 169 159 151 186 198 210 196 158 164 198 229 252 256 250 245 239 228 216 209 206 204 199 194 191 187 183 182 182 180 181 180 177 175 174 173 173 176 178 180 183 186 192 206 227 257 281 298 307 311 312 311 308 304 301 300 301 303 306 309 312 314 316 317 319 320 320 321 320 321 320 320 320 320 319 318
250 181 127 157 185 212 248 234 170 143 182 192 190 151 179 201 218 227 235 244 240 246 267 270 265 264 257 241 222 209 204 201 196 191 188 187 184 182 183 181 179 177 176 175 175 174 176 179 182 186 191 195 204 221 244 268 284 296 302 304 303 302 299 298 298 300 304 308 312 314 316 317 319 320 321 321 322 322 322 322 322 321 321 320 320 319
268 179 169 181 177 197 234 224 169 164 192 201 210 213 204 207 218 227 237 243 247 256 264 266 264 257 250 242 228 213 205 200 195 190 188 187 186 184 183 181 177 176 177 177 177 178 180 183 187 192 197 206 220 237 254 268 281 291 296 296 296 295 295 296 299 304 309 313 317 318 319 320 321 322 322 323 323 323 323 322 322 321 321 320 320 319
182 170 180 209 201 198 219 135 108 164 194 204 219 224 221 222 227 231 238 242 248 255 259 263 263 253 241 234 225 216 206 200 198 196 191 189 188 186 183 181 179 178 178 179 181 183 185 188 193 199 206 220 235 247 259 272 283 289 290 291 292 292 295 299 305 311 316 319 321 322 322 323 323 323 323 324 323 323 323 322 322 321 320 320 319 318
140 159 174 196 209 227 238 120 106 111 202 213 224 223 221 227 234 236 240 245 249 254 258 259 254 241 227 221 217 212 205 200 201 201 196 192 190 187 184 183 181 180 180 182 185 187 191 196 202 209 219 232 243 254 267 276 282 283 283 284 287 291 297 303 311 316 319 321 322 323 322 323 323 323 323 323 323 323 322 321 320 319 318 317 317 316
149 177 180 169 199 239 250 149 157 188 248 205 222 229 228 233 239 244 250 254 255 257 256 248 232 215 206 206 208 209 206 201 200 202 200 194 191 188 186 185 183 183 184 186 189 192 197 203 210 219 229 240 248 256 264 268 270 272 275 279 285 292 300 308 313 317 318 319 320 321 321 322 322 323 323 322 322 321 320 319 318 317 316 316 316 315
189 186 171 180 209 224 78 135 176 205 229 84 170 245 241 240 246 249 250 254 258 259 253 242 229 217 208 205 207 211 213 208 204 202 200 195 192 190 188 186 186 187 188 191 195 200 204 210 218 226 234 241 248 253 258 261 263 267 272 278 288 297 305 311 314 316 317 319 319 321 322 322 322 322 322 321 320 319 318 318 317 317 316 316 316 315